Find Starlink 37014

NORAD ID: 68216 Int'l Des: 2026-053 Owner: SPXS Country: US Constellation: starlink operational
LEOCIRCULARRETROGRADE

リアルタイム位置

3D地球を読み込み中...

Starlink 37014について

説明を読み込み中...

次回通過

Passes for default location (London). Set your location on the main map for personalized predictions.

高度履歴

Loading altitude history...

軌道要素

1 68216U 26053K 26122.10290995 .00010246 00000-0 31933-3 0 9992
2 68216 97.2858 357.8778 0001260 98.4137 261.7249 15.33437806 8403
Epoch: May 2, 2026 • Age: 11 hours

現在のステータス

高度 468.4 km
速度 7.63 km/s
衛星直下点 2.55°N, 64.13°W
打ち上げ日 Mar 17, 2026
運用期間 0.1 years
タイプ internet

技術仕様

分類 Payload
質量 575.00 kg
乾燥質量 530.00 kg
総質量 575.00 kg
長さ 0.30 m
直径 4.10 m
スパン 29.00 m
形状 Box + pan
製造者 SPXS
バスタイプ Starlink V2MO
フェーズステータス In Orbit
所有者/国 SPXS/US

Most Searched